Torna al catalogo

CZ-6A DEB

AttivoSSO
NORAD 56255·DEBRIS·🇨🇳 China

Lanciato Nov 11, 2022 da Taiyuan Satellite Launch Center

Loading…

Prossimi Passaggi (prossime 24 ore)

TLE

In scadenzaSource: Space-Track

Epoca: Sep 9, 2026, 15:13 UTC

1 56255U 22151ABX 26252.63457002  .00002608  00000-0  16295-2 0  9999
2 56255  98.9290 223.7486 0134186 179.3824 180.7531 14.01226742175839

Traccia CZ-6A DEB in tempo reale con AllMySat

Download on the App Store